EDDF

Frankfurt am Main Airport

Airport
ICAO code
EDDF
IATA Code
FRA
Summary
ICAO Region
EUR
ICAO Territory
Location

Frankfurt,

Serving
Frankfurt
Elevation
364 ft
Coordinates
50° 2' 28" N , 8° 34' 24" E
KCC
Airport LOS
Parallel Runway Operation
Metar
EDDF 232150Z AUTO 20005KT 9999 -SHRA FEW///TCU 16/12 Q1017 NOSIG

Description

International airport serving Frankfurt am Main, Germany.

Climatology

Temperate Marine climate/Oceanic climate (Köppen climate classification Cfb) - Moderately cool summer and comparatively warm winter.

Runways

Designator Length Width Surface Rops
07C/25C 4000 60 CON Yes/Yes
07R/25L 4000 45 CON Yes/Yes
18/36 4000 45 CON Yes/Yes

SKYbrary Partners:

Safety knowledge contributed by: